Home   Weather   Norwalk   Past weeks
Flag for USA

Past Weather in Norwalk, California, USA — Yesterday and Last 2 Weeks

Now
69 °F

Passing clouds.


Feels Like: 69 °F
Forecast: 70 / 51 °F
Wind: No wind

Location: Fullerton Municipal Airport

Current Time: Jan 19, 2019 at 6:51:35 pm

Latest Report: Jan 19, 2019 at 5:53 pm


Visibility: 10 mi

Pressure: 30.11 "Hg

Humidity: 41%

Dew Point: 44 °F

Location of NorwalkLocation

Past Weather in Norwalk — Graph

°F

Norwalk Temperature Yesterday

Maximum temperature yesterday: 65 °F (at 3:53 pm)
Minimum temperature yesterday: 53 °F (at 11:53 pm)
Average temperature yesterday: 58 °F

High & Low Weather Summary for the Past Weeks

 TemperatureHumidityPressure
High79 °F (Jan 19, 2:53 pm)93% (Jan 6, 7:27 am)30.28 "Hg (Jan 6, 7:27 am)
Low46 °F (Jan 9, 5:53 am)23% (Jan 19, 2:53 pm)29.92 "Hg (Jan 5, 3:53 am)
Average56 °F77%30.10 "Hg
* Reported Jan 4 4:53 pm — Jan 19 4:53 pm, Norwalk. Weather by CustomWeather, © 2019

Note: Actual official high and low records may vary slightly from our data, if they occured in-between our weather recording intervals... More about our weather records

Advertising

Norwalk Weather History for the Previous 24 Hours

Scroll right to see more
 ConditionsComfort  
Time TempWeatherWind HumidityBarometerVisibility
4:53 pm
Sat, Jan 19
76 °FScattered clouds.6 mph29%30.10 "Hg10 mi
2:53 pm79 °FScattered clouds.7 mph23%30.13 "Hg10 mi
1:53 pm78 °FPassing clouds.6 mph25%30.15 "Hg10 mi
12:53 pm78 °FPassing clouds.7 mph27%30.18 "Hg10 mi
11:53 am74 °FPassing clouds.No wind37%30.22 "Hg10 mi
10:53 am70 °FSunny.No wind46%30.24 "Hg10 mi
9:53 am63 °FSunny.No wind60%30.25 "Hg10 mi
8:53 am58 °FScattered clouds.3 mph72%30.25 "Hg10 mi
7:53 am52 °FSunny.No wind83%30.25 "Hg9 mi
6:53 am47 °FClear.3 mph90%30.22 "Hg10 mi
5:53 am49 °FClear.No wind86%30.21 "Hg10 mi
4:53 am49 °FClear.5 mph86%30.20 "Hg9 mi
3:53 am50 °FClear.No wind86%30.21 "Hg9 mi
2:53 am51 °FClear.No wind86%30.22 "Hg7 mi
1:53 am53 °FClear.No wind86%30.22 "Hg9 mi
12:53 am52 °FFog.No wind89%30.24 "Hg6 mi
11:53 pm
Fri, Jan 18
53 °FFog.No wind86%30.25 "Hg6 mi
10:53 pm54 °FClear.No wind86%30.27 "Hg7 mi
9:53 pm55 °FClear.No wind87%30.25 "Hg8 mi
8:53 pm56 °FClear.No wind87%30.25 "Hg8 mi
7:53 pm58 °FPassing clouds.No wind81%30.25 "Hg9 mi
6:53 pm59 °FClear.No wind78%30.24 "Hg10 mi
Weather by CustomWeather, © 2019

See weather overview